Location: Newark
(25.4297°S, 49.2719°W)
Time: 19:56:49
(UTC+00:00)

Transit 2A Rocket - All Passes

Search period start: 19 November 2019 00:00
Search period end: 29 November 2019 00:00
Orbit: 594 x 909 km, 66.7° (Epoch: 18 November)

Date Brightness Start Highest point End Pass type
(mag) Time Alt. Az. Time Alt. Az. Time Alt. Az.
19 Nov - 11:35:58 10° N 11:40:57 48° ENE 11:46:27 10° SE daylight
19 Nov - 13:20:18 10° W 13:23:52 17° SW 13:27:38 10° SSW daylight
19 Nov - 22:10:23 10° SSW 22:16:20 72° ESE 22:21:48 10° NNE visible
20 Nov - 10:54:27 10° NNE 10:58:40 25° ENE 11:03:12 10° SE daylight
20 Nov - 12:36:19 10° WNW 12:41:02 31° WSW 12:46:09 10° S daylight
20 Nov - 21:28:10 10° S 21:33:43 39° ESE 21:38:51 10° NE daylight
20 Nov - 23:11:43 10° WSW 23:15:56 21° WNW 23:19:55 10° NNW visible
21 Nov - 10:14:23 10° NE 10:16:29 12° ENE 10:18:40 10° ESE daylight
21 Nov - 11:53:09 10° NW 11:58:21 58° WSW 12:04:05 10° SSE daylight
21 Nov - 20:46:24 10° S 20:50:56 22° ESE 20:55:13 10° ENE daylight
21 Nov - 22:28:14 10° SW 22:33:40 40° WNW 22:38:42 10° N visible
22 Nov - 11:10:35 10° NNW 11:15:50 76° ENE 11:21:37 10° SSE daylight
22 Nov - 12:57:06 10° WSW 12:59:06 12° SW 13:01:10 10° SSW daylight
22 Nov - 20:05:41 10° SSE 20:08:00 12° SE 20:10:16 10° ESE daylight
22 Nov - 21:45:22 10° SSW 21:51:17 76° WNW 21:56:42 10° NNE daylight
23 Nov - 10:28:36 10° N 10:33:27 38° ENE 10:38:44 10° SE daylight
23 Nov - 12:12:03 10° WNW 12:16:11 21° WSW 12:20:33 10° S daylight
23 Nov - 21:02:54 10° SSW 21:08:45 58° ESE 21:14:07 10° NE daylight
23 Nov - 22:48:08 10° WSW 22:50:39 13° WNW 22:53:06 10° NW visible
24 Nov - 09:47:25 10° NNE 09:51:12 20° ENE 09:55:13 10° ESE daylight
24 Nov - 11:28:25 10° NW 11:33:24 38° WSW 11:38:49 10° S daylight
24 Nov - 20:20:49 10° S 20:26:04 32° ESE 20:30:57 10° ENE daylight
24 Nov - 22:03:45 10° SW 22:08:27 26° WNW 22:12:52 10° NNW visible
25 Nov - 10:45:28 10° NNW 10:50:46 72° WSW 10:56:36 10° SSE daylight
25 Nov - 19:39:18 10° SSE 19:43:14 18° SE 19:47:00 10° E daylight
25 Nov - 21:20:31 10° SW 21:26:10 49° WNW 21:31:20 10° N daylight
26 Nov - 10:03:05 10° N 10:08:17 60° ENE 10:14:00 10° SSE daylight
26 Nov - 11:48:18 10° W 11:51:23 15° SW 11:54:34 10° SSW daylight
26 Nov - 20:37:48 10° SSW 20:43:44 87° ESE 20:49:08 10° NNE daylight
27 Nov - 09:21:20 10° NNE 09:25:58 31° ENE 09:30:57 10° SE daylight
27 Nov - 11:03:57 10° WNW 11:08:30 26° WSW 11:13:22 10° S daylight
27 Nov - 19:55:28 10° S 20:01:09 47° ESE 20:06:22 10° NE daylight
27 Nov - 21:39:43 10° WSW 21:43:12 17° WNW 21:46:32 10° NW daylight
28 Nov - 08:40:34 10° NE 08:43:44 16° ENE 08:47:04 10° ESE daylight
28 Nov - 10:20:35 10° NW 10:25:46 47° WSW 10:31:26 10° S daylight
28 Nov - 19:13:33 10° S 19:18:25 26° ESE 19:22:58 10° ENE daylight
28 Nov - 20:55:54 10° SW 21:00:59 32° WNW 21:05:41 10° NNW daylight
